| time (UTC) | temp C | wind direction | speed KPH | gust KPH | rain 1hr cm | rain 24hr cm | rain mn cm | humidity % | barometer mb |
| 20260506184541 | 13 | 20 | 4.8 | 17.7 | 0.00 | 0.00 | 0.00 | 84 | 1013.6 |
| 20260506183031 | 13 | 313 | 6.4 | 20.9 | 0.00 | 0.00 | 0.00 | 84 | 1013.2 |
| 20260506181533 | 13 | 32 | 4.8 | 11.3 | 0.00 | 0.00 | 0.00 | 84 | 1013.6 |
| 20260506180030 | 13 | 46 | 4.8 | 14.5 | 0.00 | 0.00 | 0.00 | 84 | 1013.6 |
| 20260506174530 | 14 | 28 | 14.5 | 29.0 | 0.00 | 0.00 | 0.00 | 84 | 1011.8 |
| 20260506173037 | 13 | 360 | 11.3 | 25.7 | 0.00 | 0.00 | 0.00 | 85 | 1011.6 |
| 20260506171535 | 13 | 33 | 11.3 | 24.1 | 0.00 | 0.00 | 0.00 | 84 | 1012.8 |
| 20260506170030 | 13 | 28 | 11.3 | 20.9 | 0.00 | 0.00 | 0.00 | 84 | 1013.1 |
| 20260506164531 | 13 | 347 | 8.0 | 20.9 | 0.00 | 0.00 | 0.00 | 84 | 1013.8 |
| 20260506163045 | 13 | 41 | 16.1 | 30.6 | 0.00 | 0.00 | 0.00 | 85 | 1012.9 |
| 20260506161530 | 12 | 46 | 16.1 | 25.7 | 0.00 | 0.00 | 0.00 | 86 | 1012.7 |
| 20260506160035 | 12 | 30 | 11.3 | 22.5 | 0.00 | 0.00 | 0.00 | 87 | 1013.1 |
| 20260506154537 | 12 | 360 | 8.0 | 19.3 | 0.00 | 0.00 | 0.00 | 87 | 1013.5 |
| 20260506153033 | 12 | 21 | 11.3 | 19.3 | 0.00 | 0.00 | 0.00 | 86 | 1013.3 |
| 20260506151539 | 12 | 8 | 6.4 | 17.7 | 0.00 | 0.00 | 0.00 | 85 | 1014.2 |
| 20260506150029 | 12 | 10 | 8.0 | 25.7 | 0.00 | 0.00 | 0.00 | 84 | 1014.3 |
| 20260506144534 | 12 | 317 | 8.0 | 25.7 | 0.00 | 0.00 | 0.00 | 83 | 1014.0 |
| 20260506143032 | 12 | 316 | 8.0 | 19.3 | 0.00 | 0.00 | 0.00 | 83 | 1013.4 |
| 20260506141532 | 12 | 33 | 11.3 | 27.4 | 0.00 | 0.00 | 0.00 | 82 | 1012.7 |
| 20260506140034 | 12 | 12 | 9.7 | 22.5 | 0.00 | 0.00 | 0.00 | 81 | 1012.7 |
| 20260506134531 | 12 | 10 | 8.0 | 22.5 | 0.00 | 0.00 | 0.00 | 82 | 1012.6 |
| 20260506133033 | 12 | 14 | 16.1 | 25.7 | 0.00 | 0.00 | 0.00 | 82 | 1012.5 |
| 20260506131535 | 12 | 11 | 9.7 | 30.6 | 0.00 | 0.00 | 0.00 | 81 | 1012.1 |
| 20260506130030 | 13 | 347 | 11.3 | 20.9 | 0.00 | 0.00 | 0.00 | 81 | 1011.8 |
| 20260506124530 | 13 | 41 | 8.0 | 20.9 | 0.00 | 0.00 | 0.00 | 82 | 1011.9 |
| 20260506123030 | 13 | 320 | 9.7 | 22.5 | 0.00 | 0.00 | 0.00 | 82 | 1011.5 |
| 20260506121531 | 13 | 360 | 9.7 | 25.7 | 0.00 | 0.00 | 0.00 | 82 | 1011.3 |
| 20260506120034 | 13 | 8 | 11.3 | 22.5 | 0.00 | 0.00 | 0.00 | 81 | 1011.3 |
| 20260506114530 | 13 | 347 | 12.9 | 24.1 | 0.00 | 0.00 | 0.00 | 81 | 1011.0 |
| 20260506113032 | 13 | 8 | 6.4 | 24.1 | 0.00 | 0.00 | 0.00 | 80 | 1010.7 |
| 20260506111534 | 13 | 347 | 9.7 | 25.7 | 0.00 | 0.00 | 0.00 | 80 | 1010.2 |
| 20260506110028 | 13 | 360 | 6.4 | 22.5 | 0.00 | 0.00 | 0.00 | 82 | 1010.0 |
| 20260506104532 | 13 | 27 | 8.0 | 17.7 | 0.00 | 0.00 | 0.00 | 84 | 1009.9 |
| 20260506103033 | 13 | 360 | 8.0 | 17.7 | 0.00 | 0.00 | 0.00 | 84 | 1009.8 |
| 20260506101530 | 13 | 337 | 8.0 | 17.7 | 0.00 | 0.00 | 0.00 | 85 | 1009.6 |
| 20260506100034 | 14 | 6 | 4.8 | 17.7 | 0.00 | 0.00 | 0.00 | 84 | 1009.5 |
| 20260506094530 | 14 | 29 | 6.4 | 14.5 | 0.00 | 0.00 | 0.00 | 84 | 1009.3 |
| 20260506093032 | 15 | 324 | 8.0 | 16.1 | 0.00 | 0.00 | 0.00 | 83 | 1009.2 |
| 20260506091532 | 15 | 360 | 8.0 | 17.7 | 0.00 | 0.00 | 0.00 | 81 | 1009.1 |
| 20260506090030 | 16 | 305 | 6.4 | 14.5 | 0.00 | 0.00 | 0.00 | 79 | 1009.0 |
| 20260506084537 | 16 | 310 | 6.4 | 16.1 | 0.00 | 0.00 | 0.00 | 79 | 1008.8 |
| 20260506083033 | 16 | 360 | 4.8 | 14.5 | 0.00 | 0.00 | 0.00 | 79 | 1008.6 |
| 20260506081537 | 16 | 14 | 4.8 | 14.5 | 0.00 | 0.00 | 0.00 | 79 | 1008.3 |
| 20260506073030 | 17 | 334 | 8.0 | 16.1 | 0.00 | 0.00 | 0.00 | 79 | 1008.6 |
| 20260506071532 | 17 | 360 | 4.8 | 16.1 | 0.00 | 0.00 | 0.00 | 79 | 1008.7 |
| 20260506061531 | 17 | 341 | 9.7 | 17.7 | 0.00 | 0.00 | 0.00 | 78 | 1008.8 |
| 20260506044530 | 21 | 332 | 6.4 | 17.7 | 0.00 | 0.00 | 0.00 | 75 | 1008.1 |
| 20260506043031 | 21 | 311 | 6.4 | 17.7 | 0.00 | 0.00 | 0.00 | 75 | 1008.2 |
| 20260506041539 | 21 | 310 | 4.8 | 14.5 | 0.00 | 0.00 | 0.00 | 73 | 1008.1 |
| 20260506040033 | 21 | 326 | 8.0 | 19.3 | 0.00 | 0.00 | 0.00 | 73 | 1007.9 |
| 20260506034546 | 22 | 11 | 8.0 | 17.7 | 0.00 | 0.00 | 0.00 | 72 | 1007.4 |
| 20260506033028 | 22 | 360 | 8.0 | 19.3 | 0.00 | 0.00 | 0.00 | 71 | 1007.2 |
| 20260506031530 | 22 | 360 | 4.8 | 17.7 | 0.00 | 0.00 | 0.00 | 70 | 1007.4 |
| 20260506030032 | 23 | 308 | 6.4 | 19.3 | 0.00 | 0.00 | 0.00 | 69 | 1007.1 |
| 20260506024530 | 24 | 347 | 1.6 | 12.9 | 0.00 | 0.00 | 0.00 | 70 | 1006.8 |
| 20260506023031 | 25 | 312 | 8.0 | 17.7 | 0.00 | 0.00 | 0.00 | 71 | 1006.3 |
| 20260506021528 | 25 | 0 | 0.0 | 4.8 | 0.00 | 0.00 | 0.00 | 80 | 1005.8 |
| 20260506020028 | 25 | 198 | 3.2 | 8.0 | 0.00 | 0.00 | 0.00 | 80 | 1005.5 |
| 20260506014527 | 25 | 248 | 1.6 | 6.4 | 0.00 | 0.00 | 0.00 | 79 | 1005.6 |
| 20260506013043 | 26 | 0 | 0.0 | 6.4 | 0.00 | 0.00 | 0.00 | 78 | 1005.2 |
| 20260506011541 | 26 | 189 | 3.2 | 16.1 | 0.00 | 0.00 | 0.00 | 78 | 1005.1 |
| 20260506010033 | 26 | 193 | 11.3 | 22.5 | 0.00 | 0.00 | 0.00 | 77 | 1004.4 |
| 20260506004532 | 26 | 169 | 16.1 | 27.4 | 0.00 | 0.00 | 0.00 | 77 | 1004.3 |
| 20260506003032 | 26 | 164 | 11.3 | 24.1 | 0.00 | 0.00 | 0.00 | 76 | 1004.4 |
| 20260506001530 | 27 | 145 | 11.3 | 24.1 | 0.00 | 0.00 | 0.00 | 76 | 1004.2 |
| 20260506000033 | 27 | 180 | 14.5 | 25.7 | 0.00 | 0.00 | 0.00 | 75 | 1004.2 |
| 20260505234532 | 27 | 177 | 14.5 | 25.7 | 0.00 | 0.00 | 0.00 | 75 | 1004.4 |
| 20260505233031 | 27 | 154 | 14.5 | 29.0 | 0.00 | 0.00 | 0.00 | 73 | 1004.2 |
| 20260505231530 | 28 | 158 | 14.5 | 29.0 | 0.00 | 0.00 | 0.00 | 72 | 1004.0 |
| 20260505230045 | 28 | 181 | 14.5 | 27.4 | 0.00 | 0.00 | 0.00 | 71 | 1003.9 |
| 20260505224534 | 28 | 164 | 14.5 | 27.4 | 0.00 | 0.00 | 0.00 | 70 | 1003.8 |
| 20260505223039 | 30 | 181 | 17.7 | 29.0 | 0.00 | 0.00 | 0.00 | 67 | 1003.6 |
| 20260505221530 | 30 | 156 | 11.3 | 22.5 | 0.00 | 0.00 | 0.00 | 66 | 1003.5 |
| 20260505220048 | 30 | 149 | 9.7 | 24.1 | 0.00 | 0.00 | 0.00 | 66 | 1003.7 |
| 20260505214536 | 31 | 209 | 9.7 | 20.9 | 0.00 | 0.00 | 0.00 | 63 | 1003.6 |
| 20260505213034 | 31 | 241 | 11.3 | 25.7 | 0.00 | 0.00 | 0.00 | 62 | 1003.8 |
| 20260505211532 | 31 | 170 | 11.3 | 22.5 | 0.00 | 0.00 | 0.00 | 63 | 1004.0 |
| 20260505210033 | 31 | 205 | 11.3 | 20.9 | 0.00 | 0.00 | 0.00 | 63 | 1004.1 |
| 20260505204530 | 31 | 243 | 11.3 | 27.4 | 0.00 | 0.00 | 0.00 | 63 | 1004.2 |
| 20260505203034 | 31 | 195 | 14.5 | 27.4 | 0.00 | 0.00 | 0.00 | 63 | 1004.5 |
| 20260505201533 | 30 | 179 | 12.9 | 27.4 | 0.00 | 0.00 | 0.00 | 65 | 1004.7 |
| 20260505200040 | 30 | 201 | 14.5 | 30.6 | 0.00 | 0.00 | 0.00 | 66 | 1004.8 |
| 20260505194532 | 29 | 211 | 14.5 | 30.6 | 0.00 | 0.00 | 0.00 | 67 | 1004.7 |
| 20260505193034 | 29 | 192 | 16.1 | 27.4 | 0.00 | 0.00 | 0.00 | 66 | 1004.8 |
| 20260505191535 | 28 | 197 | 14.5 | 27.4 | 0.00 | 0.00 | 0.00 | 68 | 1005.0 |
| 20260505190032 | 28 | 185 | 16.1 | 29.0 | 0.00 | 0.00 | 0.00 | 69 | 1005.2 |